Regional Weather Roundup
Issued by NWS

Home | Current Version | Previous Version | Graphics & Text | Print | Product List | Glossary On
Versions: 1 2 3 4 5 6 7 8 9 10 11 12 13 14 15 16 17 18 19 20 21 22 23 24 25 26 27 28 29 30 31 32 33 34 35 36 37 38 39 40 41 42 43 44 45 46 47 48 49 50
177
ASUS44 KLIX 230305
RWRLA
LOUISIANA WEATHER ROUNDUP
NATIONAL WEATHER SERVICE NEW ORLEANS LA
1000 PM CDT MON SEP 22 2014

NOTE: "FAIR" INDICATES FEW OR NO CLOUDS BELOW 12,000 FEET WITH NO
      SIGNIFICANT WEATHER AND/OR OBSTRUCTIONS TO VISIBILITY.
      SKY/WX - SKY CONDITION AND SIGNIFICANT WEATHER.
      TMP - AIR TEMPERATURE.    DP   - DEWPOINT TEMPERATURE.
      RH  - RELATIVE HUMIDITY.  PRES - PRESSURE.
      HX  - HEAT INDEX.         WCI  - WIND CHILL INDEX.

*  THESE STATIONS ARE NOT NWS OR FAA STATIONS AND ARE NOT UNDER
   NWS QUALITY CONTROL.

LAZ040-048-061>063-065-066-069-230400-
SOUTHEAST LOUISIANA

CITY           SKY/WX    TMP DP  RH WIND       PRES   REMARKS
N.O. AUDUBON     N/A     82  58  44 MISG        N/A
N.O. INTL ARPT CLEAR     80  56  43 NE22G29   30.04R
N.O. LAKEFRONT CLEAR     80  61  52 NE25      30.04S
N.O. DOWNTOWN* FAIR      81  55  41 N10G17    30.04S
SLIDELL        CLEAR     67  58  72 N6        30.05R
BATON ROUGE    CLEAR     69  57  65 VRB3      30.07R
BOOTHVILLE     PTCLDY    83  66  56 NE14G24   30.02R
BELLE CHASSE   PTCLDY    77  56  48 NE8       30.03R
BOGALUSA*        N/A     63  58  83 CALM      30.09R
GALLIANO*      NOT AVBL
NEW ROADS*     FAIR      67  58  72 N6        30.08R
GONZALES*      FAIR      73  61  67 N3        30.05S
HAMMOND*       CLEAR     68  57  68 N3        30.08S
HOUMA*         CLEAR     74  49  41 N8        30.03R
PORT FOURCHON* MOCLDY    82  68  61 NE21      30.04S

$$

LAZ041-044-053-054-230400-
SOUTHWEST LOUISIANA

CITY           SKY/WX    TMP DP  RH WIND       PRES   REMARKS
LAKE CHARLES   CLEAR     75  58  55 NE15      30.06R
LAFAYETTE      CLEAR     69  58  67 NE9       30.07R
PATTERSON      CLEAR     73  64  73 N8        30.07
SALT POINT       N/A     79  66  64 N5        30.04R
NEW IBERIA     CLEAR     73  60  63 N12       30.07R
CHENAULT AIRPK CLEAR     72  59  64 N7        30.07S

$$

LAZ027-028-230400-
CENTRAL LOUISIANA

CITY           SKY/WX    TMP DP  RH WIND       PRES   REMARKS
FORT POLK      NOT AVBL
ALEXANDRIA INT CLEAR     68  55  63 N5        30.09R
ALEXANDRIA     CLEAR     63  59  87 CALM      30.10S

$$

LAZ001-002-230400-
NORTHWEST LOUISIANA

CITY           SKY/WX    TMP DP  RH WIND       PRES   REMARKS
SHREVEPORT     CLEAR     71  54  54 NE7       30.14R
BARKSDALE AFB  CLEAR     67  54  62 NE2       30.15R
DTN SHREVEPORT CLEAR     70  55  59 N3        30.14R

$$

LAZ014-016-230400-
NORTHEAST LOUISIANA

CITY           SKY/WX    TMP DP  RH WIND       PRES   REMARKS
MONROE         CLEAR     68  53  58 NE8       30.14R
TALLULAH       CLEAR     65  54  67 N9        30.13R

$$




USA.gov is the U.S. government's official web portal to all federal, state and local government web resources and services.